When you browse on this site, cookies collect data to enhance your experience and personalize the content and advertising you see.
Visit our Privacy Policy to learn more. By continuing to use the site, you agree to this use of cookies and data.
  • In Portugal
  • List of Countries
  • For 7 days
  • Water Temperature
  • Satellite Maps
  • Weather Map
  • Weather Widgets
  • user-avatar
    Login

    Hourly Weather Bakhmut (Artemivsk)

    Today, 25 May, Saturday

    Time Temperature Precipitation Wind Pressure Humidity
    00:00 +17°C° 0.2 mm 2 mps 746 mmHg 83%
    01:00 +17°C° 0 mm 2 mps 746 mmHg 85%
    02:00 +17°C° 0 mm 2 mps 745 mmHg 87%
    03:00 +16°C° 0 mm 1 mps 745 mmHg 89%
    04:00 +16°C° 0 mm 2 mps 745 mmHg 87%
    05:00 +17°C° 0 mm 2 mps 745 mmHg 85%
    06:00 +17°C° 0 mm 2 mps 746 mmHg 83%
    07:00 +19°C° 0.2 mm 2 mps 745 mmHg 77%
    08:00 +20°C° 0.2 mm 2 mps 745 mmHg 71%
    09:00 +23°C° 0 mm 2 mps 745 mmHg 66%
    10:00 +24°C° 1.4 mm 3 mps 745 mmHg 64%
    11:00 +24°C° 1.4 mm 3 mps 745 mmHg 62%
    12:00 +25°C° 1.4 mm 4 mps 744 mmHg 61%
    13:00 +25°C° 0.4 mm 4 mps 744 mmHg 61%
    14:00 +25°C° 0.4 mm 5 mps 744 mmHg 62%
    15:00 +25°C° 0.4 mm 5 mps 744 mmHg 63%
    16:00 +23°C° 0.3 mm 5 mps 744 mmHg 69%
    17:00 +22°C° 0.3 mm 5 mps 744 mmHg 75%
    18:00 +21°C° 0.3 mm 5 mps 743 mmHg 81%
    19:00 +20°C° 0.8 mm 4 mps 743 mmHg 85%
    20:00 +19°C° 0.8 mm 3 mps 743 mmHg 88%
    21:00 +18°C° 0.8 mm 3 mps 743 mmHg 92%
    22:00 +18°C° 1.4 mm 3 mps 743 mmHg 93%
    23:00 +18°C° 1.4 mm 3 mps 743 mmHg 93%

    Tomorrow, 26 May, Sunday

    Time Temperature Precipitation Wind Pressure Humidity
    00:00 +17°C° 1.4 mm 3 mps 743 mmHg 94%
    01:00 +17°C° 2.1 mm 3 mps 743 mmHg 94%
    02:00 +17°C° 2.1 mm 3 mps 743 mmHg 94%
    03:00 +17°C° 2.1 mm 3 mps 742 mmHg 94%
    04:00 +17°C° 1 mm 4 mps 743 mmHg 94%
    05:00 +17°C° 1 mm 4 mps 743 mmHg 94%
    06:00 +17°C° 1 mm 4 mps 743 mmHg 93%
    07:00 +17°C° 0.7 mm 4 mps 743 mmHg 91%
    08:00 +18°C° 0.7 mm 4 mps 743 mmHg 88%
    09:00 +19°C° 0.7 mm 5 mps 743 mmHg 85%
    10:00 +20°C° 1 mm 5 mps 743 mmHg 79%
    11:00 +22°C° 1 mm 5 mps 744 mmHg 74%
    12:00 +23°C° 1 mm 5 mps 744 mmHg 68%
    13:00 +23°C° 1.1 mm 5 mps 744 mmHg 67%
    14:00 +25°C° 1.1 mm 5 mps 744 mmHg 66%
    15:00 +25°C° 1.1 mm 5 mps 744 mmHg 65%
    16:00 +25°C° 0.5 mm 5 mps 744 mmHg 68%
    17:00 +23°C° 0.5 mm 5 mps 744 mmHg 70%
    18:00 +23°C° 0.5 mm 4 mps 744 mmHg 73%
    19:00 +21°C° 0.7 mm 4 mps 745 mmHg 77%
    20:00 +20°C° 0.7 mm 5 mps 745 mmHg 81%
    21:00 +19°C° 0.7 mm 5 mps 745 mmHg 84%
    22:00 +18°C° 0 mm 4 mps 746 mmHg 86%
    23:00 +18°C° 0 mm 4 mps 747 mmHg 88%

    Day after tomorrow, 27 May, Monday

    Time Temperature Precipitation Wind Pressure Humidity
    00:00 +17°C° 0 mm 3 mps 747 mmHg 90%
    01:00 +17°C° 0 mm 3 mps 747 mmHg 91%
    02:00 +16°C° 0 mm 3 mps 748 mmHg 92%
    03:00 +16°C° 0 mm 3 mps 748 mmHg 93%
    04:00 +16°C° 0 mm 3 mps 749 mmHg 93%
    05:00 +16°C° 0 mm 3 mps 749 mmHg 92%
    06:00 +16°C° 0 mm 3 mps 750 mmHg 91%
    07:00 +18°C° 0 mm 3 mps 750 mmHg 84%
    08:00 +20°C° 0 mm 3 mps 751 mmHg 77%
    09:00 +21°C° 0 mm 3 mps 751 mmHg 69%
    10:00 +22°C° 0 mm 3 mps 751 mmHg 64%
    11:00 +23°C° 0 mm 4 mps 752 mmHg 58%
    12:00 +25°C° 0 mm 4 mps 752 mmHg 52%
    13:00 +26°C° 0 mm 4 mps 752 mmHg 51%
    14:00 +26°C° 0 mm 4 mps 752 mmHg 50%
    15:00 +26°C° 0 mm 4 mps 752 mmHg 49%
    16:00 +26°C° 0 mm 3 mps 752 mmHg 53%
    17:00 +26°C° 0 mm 3 mps 752 mmHg 56%
    18:00 +26°C° 0 mm 3 mps 752 mmHg 60%
    19:00 +24°C° 0 mm 2 mps 752 mmHg 64%
    20:00 +22°C° 0 mm 1 mps 753 mmHg 68%
    21:00 +18°C° 0 mm 0 mps 753 mmHg 72%
    22:00 +20°C° 0 mm 1 mps 753 mmHg 73%
    23:00 +20°C° 0 mm 1 mps 753 mmHg 74%

    28 May, Tuesday

    Time Temperature Precipitation Wind Pressure Humidity
    00:00 +19°C° 0 mm 1 mps 753 mmHg 74%
    01:00 +19°C° 0 mm 1 mps 753 mmHg 75%
    02:00 +19°C° 0 mm 1 mps 753 mmHg 76%
    03:00 +19°C° 0 mm 1 mps 753 mmHg 77%
    04:00 +19°C° 0 mm 1 mps 754 mmHg 77%
    05:00 +19°C° 0 mm 1 mps 754 mmHg 78%
    06:00 +19°C° 0 mm 1 mps 754 mmHg 78%
    07:00 +20°C° 0 mm 2 mps 754 mmHg 72%
    08:00 +23°C° 0 mm 2 mps 754 mmHg 66%
    09:00 +25°C° 0 mm 2 mps 754 mmHg 60%
    10:00 +26°C° 0 mm 2 mps 754 mmHg 56%
    11:00 +27°C° 0 mm 2 mps 754 mmHg 52%
    12:00 +28°C° 0 mm 2 mps 754 mmHg 48%
    13:00 +29°C° 0 mm 2 mps 754 mmHg 47%
    14:00 +29°C° 0 mm 2 mps 754 mmHg 45%
    15:00 +29°C° 0 mm 2 mps 754 mmHg 44%
    16:00 +29°C° 0 mm 1 mps 753 mmHg 48%
    17:00 +28°C° 0 mm 1 mps 753 mmHg 52%
    18:00 +28°C° 0 mm 1 mps 753 mmHg 57%
    19:00 +26°C° 0 mm 1 mps 753 mmHg 60%
    20:00 +25°C° 0 mm 2 mps 753 mmHg 64%
    21:00 +23°C° 0 mm 2 mps 753 mmHg 67%
    22:00 +21°C° 0 mm 2 mps 753 mmHg 71%
    23:00 +21°C° 0 mm 2 mps 753 mmHg 74%

    29 May, Wednesday

    Time Temperature Precipitation Wind Pressure Humidity
    00:00 +21°C° 0 mm 1 mps 753 mmHg 78%
    01:00 +20°C° 0 mm 1 mps 753 mmHg 78%
    02:00 +20°C° 0 mm 1 mps 753 mmHg 79%
    03:00 +20°C° 0 mm 1 mps 753 mmHg 80%
    04:00 +20°C° 0 mm 1 mps 753 mmHg 80%
    05:00 +19°C° 0 mm 2 mps 753 mmHg 80%
    06:00 +20°C° 0 mm 2 mps 753 mmHg 80%
    07:00 +22°C° 0 mm 3 mps 753 mmHg 73%
    08:00 +24°C° 0 mm 3 mps 754 mmHg 67%
    09:00 +26°C° 0 mm 4 mps 754 mmHg 61%
    10:00 +27°C° 0 mm 4 mps 753 mmHg 59%
    11:00 +28°C° 0 mm 5 mps 753 mmHg 57%
    12:00 +29°C° 0 mm 5 mps 753 mmHg 55%
    13:00 +29°C° 0 mm 5 mps 753 mmHg 54%
    14:00 +29°C° 0 mm 5 mps 753 mmHg 53%
    15:00 +29°C° 0 mm 5 mps 753 mmHg 52%
    16:00 +29°C° 0 mm 5 mps 752 mmHg 55%
    17:00 +29°C° 0 mm 4 mps 752 mmHg 58%
    18:00 +28°C° 0 mm 3 mps 752 mmHg 61%
    19:00 +27°C° 0 mm 3 mps 752 mmHg 64%
    20:00 +25°C° 0 mm 3 mps 752 mmHg 68%
    21:00 +22°C° 0 mm 3 mps 753 mmHg 71%
    22:00 +22°C° 0 mm 3 mps 753 mmHg 72%
    23:00 +21°C° 0 mm 3 mps 753 mmHg 73%

    30 May, Thursday

    Time Temperature Precipitation Wind Pressure Humidity
    00:00 +20°C° 0 mm 3 mps 753 mmHg 74%
    01:00 +20°C° 0 mm 3 mps 752 mmHg 75%
    02:00 +19°C° 0 mm 3 mps 752 mmHg 76%
    03:00 +19°C° 0 mm 2 mps 752 mmHg 77%
    04:00 +19°C° 0 mm 3 mps 752 mmHg 77%
    05:00 +19°C° 0 mm 3 mps 753 mmHg 76%
    06:00 +19°C° 0 mm 3 mps 753 mmHg 76%
    07:00 +21°C° 0 mm 3 mps 753 mmHg 70%
    08:00 +23°C° 0 mm 4 mps 753 mmHg 63%
    09:00 +27°C° 0 mm 4 mps 753 mmHg 57%
    10:00 +28°C° 0 mm 4 mps 753 mmHg 52%
    11:00 +29°C° 0 mm 4 mps 753 mmHg 47%
    12:00 +30°C° 0 mm 4 mps 753 mmHg 43%
    13:00 +30°C° 0 mm 4 mps 753 mmHg 43%
    14:00 +32°C° 0 mm 4 mps 752 mmHg 42%
    15:00 +32°C° 0 mm 4 mps 752 mmHg 42%
    16:00 +31°C° 0 mm 3 mps 752 mmHg 46%
    17:00 +30°C° 0 mm 3 mps 752 mmHg 50%
    18:00 +30°C° 0 mm 2 mps 752 mmHg 54%
    19:00 +28°C° 0 mm 2 mps 752 mmHg 56%
    20:00 +26°C° 0 mm 2 mps 752 mmHg 59%
    21:00 +24°C° 0 mm 2 mps 752 mmHg 61%
    22:00 +23°C° 0 mm 2 mps 752 mmHg 63%
    23:00 +23°C° 0 mm 2 mps 752 mmHg 65%
    Show more